Regional Weather Roundup
Issued by NWS

Home | Current Version | Previous Version | Graphics & Text | Print | Product List | Glossary On
Versions: 1 2 3 4 5 6 7 8 9 10 11 12 13 14 15 16 17 18 19 20 21 22 23 24 25 26 27 28 29 30 31 32 33 34 35 36 37 38 39 40 41 42 43 44 45 46 47 48 49 50
000
ASUS43 KMPX 201901
RWRMN
WEATHER ROUNDUP FOR MINNESOTA
NATIONAL WEATHER SERVICE TWIN CITIES/CHANHASSEN MN
200 PM CDT WED AUG 20 2014


NOTE: "FAIR" INDICATES FEW OR NO CLOUDS BELOW 12,000 FEET WITH NO
SIGNIFICANT WEATHER AND/OR OBSTRUCTIONS TO VISIBILITY. N/A MEANS
CURRENT SKY AND/OR WEATHER CONDITIONS ARE NOT AVAILABLE.

MNZ060>063-068>070-202000-
   Twin Cities Metro

CITY           SKY/WX    TMP DP  RH WIND       PRES   REMARKS
TWIN CITIES    PTSUNNY   80  64  58 SE8       29.86F
ST PAUL        SUNNY     79  66  64 SE6       29.87R
CRYSTAL        PTSUNNY   81  64  56 S5        29.85S
BLAINE         PTSUNNY   81  66  61 NE7       29.87S
LAKEVILLE      MOSUNNY   79  66  65 S5        29.86F
EDEN PRAIRIE   MOSUNNY   81  64  56 SE7       29.85F
SOUTH ST PAUL  SUNNY     79  63  57 SE5       29.86F
LAKE ELMO      PTSUNNY   79  64  61 CALM      29.88S
$$
MNZ001>005-007-008-013>017-022>024-027-028-202000-
   Northwest Minnesota

CITY           SKY/WX    TMP DP  RH WIND       PRES   REMARKS
BEMIDJI        MOSUNNY   77  63  61 SE8       29.86S
HALLOCK        MOSUNNY   82  66  57 SE15      29.77F
ROSEAU         SUNNY     81  64  57 SE8       29.82S
WARROAD        MOSUNNY   77  66  69 E10       29.84R
THIEF RVR FALL MOSUNNY   81  64  57 SE9       29.82S
CROOKSTON      PTSUNNY   82  64  54 S10       29.80S
FOSSTON        MOSUNNY   81  64  57 SE3       29.83S
DETROIT LAKES  PTSUNNY   79  64  61 SE9       29.84S
MOORHEAD       PTSUNNY   82  70  65 SE9       29.80R
PARK RAPIDS    PTSUNNY   78  62  57 SE9       29.85S
MAHNOMEN       FAIR      77  65  66 SE5       29.82S
$$
MNZ006-009>011-018-025>026-202000-
   North Central Minnesota

CITY           SKY/WX    TMP DP  RH WIND       PRES   REMARKS
BAUDETTE       SUNNY     77  61  57 VRB6      29.85S
FLAG ISLAND    SUNNY     73  63  68 S7        29.85R
INTL FALLS     PTSUNNY   75  58  55 E10G17    29.87F
WASKISH        PTSUNNY   75  63  64 CALM      29.86R
GRAND RAPIDS   CLOUDY    72  59  64 E3        29.89R
COOK           MOSUNNY   73  57  56 CALM      29.89S
WALKER         FAIR      74  63  70 E3        29.87R
$$
MNZ012-019>021-037-202000-
   Northeast Minnesota

CITY           SKY/WX    TMP DP  RH WIND       PRES   REMARKS
DULUTH         CLOUDY    70  58  65 E8        29.90S
ELY            CLOUDY    68  59  73 CALM      29.91R
HIBBING        CLOUDY    74  58  57 SE7       29.89S
EVELETH        CLOUDY    72  57  60 E5        29.90F
DULUTH HARBOR  CLOUDY    70  64  83 NE6       29.89S
TWO HARBORS    CLOUDY    70  59  68 SE3       29.88F
GRAND MARAIS     N/A     65  60  84 E5        29.90R
G MARAIS ARPRT MOSUNNY   64  55  72 CALM      29.93R
$$
MNZ029>031-032-039>041-046>048-054>057-064-202000-
   West Central Minnesota

CITY           SKY/WX    TMP DP  RH WIND       PRES   REMARKS
FERGUS FALLS   CLOUDY    81  63  54 S15       29.81S
MORRIS         CLOUDY    82  66  57 SE14      29.81S
ALEXANDRIA     PTSUNNY   79  66  64 SE14      29.86S
ELBOW LAKE     FAIR      80  67  64 SE10G17   29.82S
WADENA         PTSUNNY   77  64  65 SE9       29.85R
GLENWOOD       CLOUDY    81  66  61 SE12      29.86S
BENSON         CLOUDY    81  68  65 S10       29.83R
ORTONVILLE     CLOUDY    81  64  57 SE10G17   29.80F
MADISON        PTSUNNY   82  68  61 SE12      29.80F
WILLMAR        FAIR      81  64  57 SE12      29.85S
$$
MNZ033>034-036-042>043-049>051-058-059-202000-
   Central Minnesota

CITY           SKY/WX    TMP DP  RH WIND       PRES   REMARKS
ST CLOUD       PTSUNNY   82  64  54 SE10      29.86S
SAUK CENTRE    FAIR     N/A N/A N/A SE12      29.86R
PAYNESVILLE    PTSUNNY   77  64  65 E10       29.86S HAZE
AITKIN         CLOUDY    75  63  64 CALM      29.87R
PINE RIVER     MOSUNNY   75  64  69 E7        29.90S
BRAINERD       PTSUNNY   74  63  68 SE8       29.88R
STAPLES        PTSUNNY   75  63  64 S9        29.86R
LONG PRAIRIE   PTSUNNY   77  63  61 E8        29.87S
LITTLE FALLS   PTSUNNY   77  63  61 E7        29.87R
LITCHFIELD     PTSUNNY   81  70  69 SE5       29.86S
BUFFALO        MOSUNNY   80  62  55 SE6       29.87S
MAPLE LAKE     PTSUNNY   80  67  66 SE6       29.87S
$$
MNZ037-044-045-052-053-202000-
   East Central Minnesota

CITY           SKY/WX    TMP DP  RH WIND       PRES   REMARKS
PRINCETON      PTSUNNY   79  64  61 SE6       29.88S
MORA           MOSUNNY   73  59  60 SE3       29.90R
CAMBRIDGE      PTSUNNY   79  63  57 S6        29.87R
RUSH CITY      MOSUNNY   74  63  68 NE3       29.89R
HINCKLEY       CLOUDY    73  63  68 E6        29.89R
CLOQUET        CLOUDY    70  59  68 E6        29.90R
MCGREGOR       CLOUDY    73  61  64 NE3       29.89R
$$
MNZ071>073-080-081-089-090-097-098-202000-
   Southwest Minnesota

CITY           SKY/WX    TMP DP  RH WIND       PRES   REMARKS
MONTEVIDEO     CLOUDY    81  70  69 S13       29.82F
GRANITE FALLS  CLOUDY    82  67  61 SE13      29.83S
CANBY          MOSUNNY   79  66  64 SE8       29.82S
MARSHALL       PTSUNNY   82  64  54 SE15G25   29.80F
REDWOOD FALLS  PTSUNNY   84  66  54 SE15      29.82F
OLIVIA         CLOUDY    81  66  61 SE9       29.83S
PIPESTONE      MOSUNNY   79  66  65 SE12      29.81F
WINDOM         PTSUNNY   79  66  65 SE10      29.84F
WORTHINGTON    CLOUDY    79  18  10 S10       29.84F
JACKSON        CLOUDY    79  64  61 SE6       29.85F
TRACY          MOSUNNY   82  68  61 SE12      29.82F
$$
MNZ065>067-074>077-082>085-091>093-202000-
   South Central Minnesota

CITY           SKY/WX    TMP DP  RH WIND       PRES   REMARKS
MANKATO        MOSUNNY   81  66  61 S9        29.85F
NEW ULM        MOSUNNY   81  68  65 SE13      29.84S
ST JAMES       MOSUNNY   82  66  57 S14       29.85F
FAIRMONT       PTSUNNY   77  64  65 S10       29.86F
GLENCOE        MOSUNNY   83  63  51 SE5       29.85S
FARIBAULT      PTSUNNY   86  61  42 SW3       29.86F
WASECA         PTSUNNY   79  61  53 S7        29.88F
ALBERT LEA     CLOUDY    82  64  54 S9        29.86F
$$
MNZ078>079-086>088-094>096-202000-
   Southeast Minnesota

CITY           SKY/WX    TMP DP  RH WIND       PRES   REMARKS
ROCHESTER      CLOUDY    80  67  64 SW9       29.89R
RED WING       MOSUNNY   81  63  54 SE5       29.86S
STANTON        MOSUNNY   81  65  57 SE3       29.85F
DODGE CENTER   PTSUNNY   81  66  61 SW6       29.88F
WINONA         PTSUNNY   79  66  65 CALM      29.86S
AUSTIN         CLOUDY    81  66  61 S7        29.87S
PRESTON        CLOUDY    79  71  76 SW5       29.89S
$$
ABBREVIATIONS USED IN REMARKS
   TC - TEMPERATURES IN CELSIUS
  WCI - WIND CHILL INDEX
   HX - HEAT INDEX
  VSB - VISIBILITY
$$


USA.gov is the U.S. government's official web portal to all federal, state and local government web resources and services.